Location: Praha
(50.0830°N, 14.4670°E)
Time: 21:42:29
(UTC+02:00)

ISS - Pass Details

Date: 05 May 2021
Orbit: 418 x 421 km, 51.6° (Epoch: 07 May)

Event Time Altitude Azimuth Distance (km) Brightness Sun altitude
Exits shadow 02:01:16 12° 97° (E) 1,400 -1.0 -22.2°
Drops below altitude 10° 02:01:37 10° 93° (E) 1,504 -0.8 -22.2°
Sets 02:04:05 0° 76° (ENE) 2,373 0.5 -22.1°
